Time,TemperatureF,DewpointF,PressureIn,WindDirection,WindDirectionDegrees,WindSpeedMPH,WindSpeedGustMPH,Humidity,HourlyPrecipIn,Conditions,Clouds,dailyrainin,SoftwareType,DateUTC
2013-04-10 00:00:00,71.8,71.0,-100.00,West,265,0.0,0.0,98,0.00,,,0.00,,2013-04-10 05:00:00,
2013-04-10 00:05:00,71.8,63.0,-100.00,WSW,254,0.0,0.0,75,0.00,,,0.00,,2013-04-10 05:05:00,
2013-04-10 00:10:00,71.8,71.0,-100.00,West,260,0.0,0.0,100,0.00,,,0.00,,2013-04-10 05:10:00,
2013-04-10 00:15:00,71.8,65.0,-100.00,West,268,0.0,0.0,80,0.00,,,0.00,,2013-04-10 05:15:00,
2013-04-10 00:20:00,71.8,39.0,-100.00,West,262,0.0,0.0,31,0.00,,,0.00,,2013-04-10 05:20:00,
2013-04-10 00:25:00,71.8,39.0,-100.00,West,265,0.0,0.0,31,0.00,,,0.00,,2013-04-10 05:25:00,
2013-04-10 00:30:00,71.8,39.0,-100.00,West,265,0.0,0.0,31,0.00,,,0.00,,2013-04-10 05:30:00,
2013-04-10 00:35:00,71.8,39.0,-100.00,West,265,0.0,0.0,31,0.00,,,0.00,,2013-04-10 05:35:00,
2013-04-10 00:40:00,71.8,39.0,-100.00,West,265,0.0,0.0,31,0.00,,,0.00,,2013-04-10 05:40:00,
2013-04-10 00:45:00,71.8,39.0,-100.00,West,268,0.0,0.0,31,0.00,,,0.00,,2013-04-10 05:45:00,
2013-04-10 00:50:00,71.7,39.0,-100.00,West,262,0.0,0.0,31,0.00,,,0.00,,2013-04-10 05:50:00,
2013-04-10 00:55:00,71.7,39.0,-100.00,West,265,0.0,0.0,31,0.00,,,0.00,,2013-04-10 05:55:00,
2013-04-10 01:00:00,71.6,39.0,-100.00,West,271,0.0,0.0,31,0.00,,,0.00,,2013-04-10 06:00:00,
2013-04-10 01:05:00,71.7,39.0,-100.00,West,265,0.0,0.0,31,0.00,,,0.00,,2013-04-10 06:05:00,
2013-04-10 01:10:00,71.7,39.0,-100.00,West,260,0.0,0.0,31,0.00,,,0.00,,2013-04-10 06:10:00,
2013-04-10 01:15:00,71.7,39.0,-100.00,West,262,0.0,0.0,31,0.00,,,0.00,,2013-04-10 06:15:00,
2013-04-10 01:20:00,71.7,39.0,-100.00,West,268,0.0,0.0,31,0.00,,,0.00,,2013-04-10 06:20:00,
2013-04-10 01:25:00,71.7,39.0,-100.00,West,268,0.0,0.0,31,0.00,,,0.00,,2013-04-10 06:25:00,
2013-04-10 01:30:00,71.7,39.0,-100.00,West,265,0.0,0.0,31,0.00,,,0.00,,2013-04-10 06:30:00,
2013-04-10 01:35:00,71.7,59.0,-100.00,WSW,243,0.0,0.0,65,0.00,,,0.00,,2013-04-10 06:35:00,
2013-04-10 01:40:00,71.7,62.0,-100.00,West,268,0.0,0.0,72,0.00,,,0.00,,2013-04-10 06:40:00,
2013-04-10 01:45:00,71.7,64.0,-100.00,West,265,0.0,0.0,78,0.00,,,0.00,,2013-04-10 06:45:00,
2013-04-10 01:50:00,71.7,59.0,-100.00,West,265,0.0,0.0,66,0.00,,,0.00,,2013-04-10 06:50:00,
2013-04-10 01:55:00,71.6,39.0,-100.00,West,262,0.0,0.0,31,0.00,,,0.00,,2013-04-10 06:55:00,
2013-04-10 02:00:00,71.7,69.0,-100.00,West,259,0.0,0.0,92,0.00,,,0.00,,2013-04-10 07:00:00,
2013-04-10 02:10:00,71.6,63.0,-100.00,West,268,0.0,0.0,77,0.00,,,0.00,,2013-04-10 07:10:00,
2013-04-10 02:15:00,71.6,71.0,-100.00,West,262,0.0,0.0,99,0.00,,,0.00,,2013-04-10 07:15:00,
2013-04-10 02:20:00,71.6,68.0,-100.00,West,265,0.0,0.0,91,0.00,,,0.00,,2013-04-10 07:20:00,
2013-04-10 02:25:00,71.6,67.0,-100.00,West,265,0.0,0.0,86,0.00,,,0.00,,2013-04-10 07:25:00,
2013-04-10 02:30:00,71.6,58.0,-100.00,West,265,0.0,0.0,63,0.00,,,0.00,,2013-04-10 07:30:00,
2013-04-10 02:35:00,71.5,59.0,-100.00,West,265,0.0,0.0,66,0.00,,,0.00,,2013-04-10 07:35:00,
2013-04-10 02:40:00,71.5,69.0,-100.00,West,265,0.0,0.0,95,0.00,,,0.00,,2013-04-10 07:40:00,
2013-04-10 02:45:00,71.5,70.0,-100.00,West,265,0.0,0.0,97,0.00,,,0.00,,2013-04-10 07:45:00,
2013-04-10 02:50:00,71.5,69.0,-100.00,West,265,0.0,0.0,92,0.00,,,0.00,,2013-04-10 07:50:00,
2013-04-10 02:55:00,71.5,68.0,-100.00,SW,217,0.0,0.0,91,0.00,,,0.00,,2013-04-10 07:55:00,
2013-04-10 03:00:00,71.6,69.0,-100.00,SW,220,0.0,0.0,94,0.00,,,0.00,,2013-04-10 08:00:00,
2013-04-10 03:05:00,71.6,61.0,-100.00,SW,220,0.0,0.0,70,0.00,,,0.00,,2013-04-10 08:05:00,
2013-04-10 03:10:00,71.6,70.0,-100.00,SW,220,0.0,0.0,96,0.00,,,0.00,,2013-04-10 08:10:00,
2013-04-10 03:15:00,71.5,58.0,-100.00,SW,220,0.0,0.0,63,0.00,,,0.00,,2013-04-10 08:15:00,
2013-04-10 03:20:00,71.6,53.0,-100.00,West,265,0.0,0.0,53,0.00,,,0.00,,2013-04-10 08:20:00,
2013-04-10 03:25:00,71.6,59.0,-100.00,West,265,0.0,0.0,66,0.00,,,0.00,,2013-04-10 08:25:00,
2013-04-10 03:30:00,71.6,59.0,-100.00,West,265,0.0,0.0,65,0.00,,,0.00,,2013-04-10 08:30:00,
2013-04-10 03:35:00,71.5,59.0,-100.00,SSW,209,0.0,0.0,67,0.00,,,0.00,,2013-04-10 08:35:00,
2013-04-10 03:40:00,71.5,58.0,-100.00,WNW,288,0.0,0.0,64,0.00,,,0.00,,2013-04-10 08:40:00,
2013-04-10 03:45:00,71.4,63.0,-100.00,SSW,206,0.0,0.0,75,0.00,,,0.00,,2013-04-10 08:45:00,
2013-04-10 03:55:00,67.8,67.0,-100.00,SW,226,0.0,0.0,95,0.00,,,0.00,,2013-04-10 08:55:00,
2013-04-10 04:05:00,60.6,49.0,-100.00,SW,217,0.0,0.0,68,0.00,,,0.00,,2013-04-10 09:05:00,
2013-04-10 04:10:00,58.5,41.0,-100.00,SW,220,0.0,0.0,54,0.00,,,0.00,,2013-04-10 09:10:00,
2013-04-10 04:15:00,57.5,35.0,-100.00,SW,220,0.0,0.0,44,0.00,,,0.00,,2013-04-10 09:15:00,
2013-04-10 04:20:00,55.9,55.0,-100.00,SW,223,0.0,0.0,100,0.00,,,0.00,,2013-04-10 09:20:00,
2013-04-10 04:25:00,55.3,52.0,-100.00,SW,215,0.0,0.0,90,0.00,,,0.00,,2013-04-10 09:25:00,
2013-04-10 04:30:00,53.5,48.0,-100.00,SSW,212,0.0,0.0,84,0.00,,,0.00,,2013-04-10 09:30:00,
2013-04-10 04:35:00,51.8,50.0,-100.00,SW,220,0.0,0.0,97,0.00,,,0.00,,2013-04-10 09:35:00,
2013-04-10 04:40:00,51.3,50.0,-100.00,SW,220,0.0,0.0,98,0.00,,,0.00,,2013-04-10 09:40:00,
2013-04-10 04:45:00,51.1,50.0,-100.00,SW,220,0.0,0.0,98,0.03,,,0.03,,2013-04-10 09:45:00,
2013-04-10 04:55:00,49.8,46.0,-100.00,SW,220,0.0,0.0,89,0.03,,,0.03,,2013-04-10 09:55:00,
2013-04-10 05:00:00,49.5,38.0,-100.00,SW,231,0.0,0.0,66,0.03,,,0.03,,2013-04-10 10:00:00,
2013-04-10 05:10:00,48.3,44.0,-100.00,SW,220,0.0,0.0,86,0.03,,,0.03,,2013-04-10 10:10:00,
2013-04-10 05:15:00,46.8,45.0,-100.00,WSW,251,0.0,0.0,94,0.03,,,0.03,,2013-04-10 10:15:00,
2013-04-10 05:20:00,46.5,45.0,-100.00,SW,217,0.0,0.0,95,0.03,,,0.03,,2013-04-10 10:20:00,
2013-04-10 05:25:00,44.9,44.0,-100.00,SW,226,0.0,0.0,100,0.03,,,0.03,,2013-04-10 10:25:00,
2013-04-10 05:30:00,44.6,44.0,-100.00,SW,217,0.0,0.0,100,0.03,,,0.03,,2013-04-10 10:30:00,
2013-04-10 05:35:00,44.6,44.0,-100.00,SW,220,0.0,0.0,100,0.03,,,0.03,,2013-04-10 10:35:00,
2013-04-10 05:40:00,44.3,44.0,-100.00,SW,231,0.0,0.0,100,0.03,,,0.03,,2013-04-10 10:40:00,
2013-04-10 05:45:00,44.2,44.0,-100.00,WSW,248,0.0,0.0,100,0.00,,,0.03,,2013-04-10 10:45:00,
2013-04-10 05:50:00,44.1,40.0,-100.00,SW,217,0.0,0.0,88,0.00,,,0.03,,2013-04-10 10:50:00,
2013-04-10 05:55:00,42.9,41.0,-100.00,WSW,243,0.0,0.0,93,0.00,,,0.03,,2013-04-10 10:55:00,
2013-04-10 06:00:00,42.9,40.0,-100.00,SW,220,0.0,0.0,91,0.00,,,0.03,,2013-04-10 11:00:00,
2013-04-10 06:05:00,42.8,41.0,-100.00,SW,220,0.0,0.0,96,0.00,,,0.03,,2013-04-10 11:05:00,
2013-04-10 06:10:00,42.6,40.0,-100.00,West,259,0.0,0.0,93,0.00,,,0.03,,2013-04-10 11:10:00,
2013-04-10 06:15:00,42.5,41.0,-100.00,SW,226,0.0,0.0,97,0.00,,,0.03,,2013-04-10 11:15:00,
2013-04-10 06:20:00,42.5,42.0,-100.00,WSW,246,0.0,0.0,100,0.00,,,0.03,,2013-04-10 11:20:00,
2013-04-10 06:30:00,42.6,42.0,-100.00,SW,215,0.0,0.0,100,0.00,,,0.03,,2013-04-10 11:30:00,
2013-04-10 06:35:00,42.5,42.0,-100.00,SW,223,0.0,0.0,100,0.00,,,0.03,,2013-04-10 11:35:00,
2013-04-10 06:40:00,42.5,41.0,-100.00,West,265,0.0,0.0,96,0.00,,,0.03,,2013-04-10 11:40:00,
2013-04-10 06:50:00,42.6,34.0,-100.00,SW,223,0.0,0.0,73,0.00,,,0.03,,2013-04-10 11:50:00,
2013-04-10 06:55:00,42.6,37.0,-100.00,SW,220,0.0,0.0,82,0.00,,,0.03,,2013-04-10 11:55:00,
2013-04-10 07:00:00,42.6,41.0,-100.00,SW,220,0.0,0.0,96,0.00,,,0.03,,2013-04-10 12:00:00,
2013-04-10 07:05:00,42.6,42.0,-100.00,SW,220,0.0,0.0,100,0.00,,,0.03,,2013-04-10 12:05:00,
2013-04-10 07:10:00,42.6,42.0,-100.00,SW,220,0.0,0.0,100,0.00,,,0.03,,2013-04-10 12:10:00,
2013-04-10 07:15:00,42.6,42.0,-100.00,SW,220,0.0,0.0,100,0.00,,,0.03,,2013-04-10 12:15:00,
2013-04-10 07:20:00,42.6,42.0,-100.00,SW,220,0.0,0.0,100,0.00,,,0.03,,2013-04-10 12:20:00,
2013-04-10 07:25:00,42.6,42.0,-100.00,SW,220,0.0,0.0,100,0.00,,,0.03,,2013-04-10 12:25:00,
2013-04-10 07:30:00,42.6,42.0,-100.00,SW,220,0.0,0.0,100,0.00,,,0.03,,2013-04-10 12:30:00,
2013-04-10 07:35:00,42.7,42.0,-100.00,SW,220,0.0,0.0,100,0.00,,,0.03,,2013-04-10 12:35:00,
2013-04-10 07:40:00,42.7,42.0,-100.00,SW,220,0.0,0.0,100,0.00,,,0.03,,2013-04-10 12:40:00,
2013-04-10 07:45:00,42.6,42.0,-100.00,SW,220,0.0,0.0,100,0.00,,,0.03,,2013-04-10 12:45:00,
2013-04-10 07:50:00,42.8,42.0,-100.00,SW,220,0.0,0.0,100,0.00,,,0.03,,2013-04-10 12:50:00,
2013-04-10 07:55:00,42.7,39.0,-100.00,SW,220,0.0,0.0,89,0.00,,,0.03,,2013-04-10 12:55:00,
2013-04-10 08:00:00,42.6,42.0,-100.00,SW,220,0.0,0.0,100,0.00,,,0.03,,2013-04-10 13:00:00,
2013-04-10 08:05:00,42.6,42.0,-100.00,West,265,0.0,0.0,100,0.00,,,0.03,,2013-04-10 13:05:00,
2013-04-10 08:10:00,42.6,42.0,-100.00,West,265,0.0,0.0,100,0.00,,,0.03,,2013-04-10 13:10:00,
2013-04-10 08:15:00,42.4,42.0,-100.00,WSW,257,0.0,0.0,100,0.00,,,0.03,,2013-04-10 13:15:00,
2013-04-10 08:20:00,42.3,42.0,-100.00,SW,220,0.0,0.0,100,0.00,,,0.03,,2013-04-10 13:20:00,
2013-04-10 08:25:00,42.3,42.0,-100.00,SW,220,0.0,0.0,100,0.00,,,0.03,,2013-04-10 13:25:00,
2013-04-10 08:30:00,42.3,42.0,-100.00,SW,220,0.0,0.0,100,0.00,,,0.03,,2013-04-10 13:30:00,
2013-04-10 08:35:00,42.2,42.0,-100.00,SW,220,0.0,0.0,100,0.00,,,0.03,,2013-04-10 13:35:00,
2013-04-10 08:40:00,42.1,42.0,-100.00,West,265,0.0,0.0,100,0.00,,,0.03,,2013-04-10 13:40:00,
2013-04-10 08:45:00,42.1,42.0,-100.00,West,265,0.0,0.0,100,0.00,,,0.03,,2013-04-10 13:45:00,
2013-04-10 08:50:00,42.1,42.0,-100.00,West,265,0.0,0.0,100,0.00,,,0.03,,2013-04-10 13:50:00,
2013-04-10 08:55:00,42.1,38.0,-100.00,West,265,0.0,0.0,86,0.00,,,0.03,,2013-04-10 13:55:00,
2013-04-10 09:00:00,42.0,40.0,-100.00,West,265,0.0,0.0,96,0.00,,,0.03,,2013-04-10 14:00:00,
2013-04-10 09:05:00,42.0,36.0,-100.00,West,265,0.0,0.0,82,0.00,,,0.03,,2013-04-10 14:05:00,
2013-04-10 09:10:00,40.8,33.0,-100.00,West,265,0.0,0.0,76,0.00,,,0.03,,2013-04-10 14:10:00,
2013-04-10 09:15:00,40.5,39.0,-100.00,SW,220,0.0,0.0,96,0.03,,,0.06,,2013-04-10 14:15:00,
2013-04-10 09:20:00,40.4,39.0,-100.00,SW,223,0.0,0.0,98,0.03,,,0.06,,2013-04-10 14:20:00,
2013-04-10 09:25:00,40.4,40.0,-100.00,SW,220,0.0,0.0,99,0.03,,,0.06,,2013-04-10 14:25:00,
2013-04-10 09:30:00,40.3,39.0,-100.00,WSW,254,0.0,0.0,98,0.03,,,0.06,,2013-04-10 14:30:00,
2013-04-10 09:35:00,40.3,39.0,-100.00,SW,220,0.0,0.0,97,0.03,,,0.06,,2013-04-10 14:35:00,
2013-04-10 09:40:00,40.4,39.0,-100.00,SW,229,0.0,0.0,97,0.03,,,0.06,,2013-04-10 14:40:00,
2013-04-10 09:45:00,40.3,40.0,-100.00,SW,220,0.0,0.0,100,0.03,,,0.06,,2013-04-10 14:45:00,
2013-04-10 09:50:00,40.2,39.0,-100.00,SW,217,0.0,0.0,98,0.09,,,0.12,,2013-04-10 14:50:00,
2013-04-10 09:55:00,39.9,37.0,-100.00,SW,215,0.0,0.0,92,0.16,,,0.19,,2013-04-10 14:55:00,
2013-04-10 10:00:00,39.9,38.0,-100.00,SW,220,0.0,0.0,94,0.16,,,0.19,,2013-04-10 15:00:00,
2013-04-10 10:05:00,40.0,39.0,-100.00,SW,220,0.0,0.0,97,0.16,,,0.19,,2013-04-10 15:05:00,
2013-04-10 10:10:00,40.0,40.0,-100.00,SW,231,0.0,0.0,100,0.16,,,0.19,,2013-04-10 15:10:00,
2013-04-10 10:15:00,39.9,38.0,-100.00,SW,234,0.0,0.0,93,0.12,,,0.19,,2013-04-10 15:15:00,
2013-04-10 10:20:00,39.6,39.0,-100.00,West,279,0.0,0.0,100,0.12,,,0.19,,2013-04-10 15:20:00,
2013-04-10 10:25:00,39.6,39.0,-100.00,WSW,240,0.0,0.0,100,0.12,,,0.19,,2013-04-10 15:25:00,
2013-04-10 10:30:00,39.3,39.0,-100.00,SW,217,0.0,0.0,100,0.12,,,0.19,,2013-04-10 15:30:00,
2013-04-10 10:35:00,39.3,39.0,-100.00,SW,220,0.0,0.0,100,0.16,,,0.22,,2013-04-10 15:35:00,
2013-04-10 10:40:00,39.1,39.0,-100.00,SW,223,0.0,0.0,100,0.16,,,0.25,,2013-04-10 15:40:00,
2013-04-10 10:45:00,39.1,39.0,-100.00,WSW,243,0.0,0.0,100,0.19,,,0.25,,2013-04-10 15:45:00,
2013-04-10 10:50:00,39.0,39.0,-100.00,West,260,0.0,0.0,100,0.16,,,0.28,,2013-04-10 15:50:00,
2013-04-10 10:55:00,39.0,39.0,-100.00,SW,220,0.0,0.0,100,0.12,,,0.31,,2013-04-10 15:55:00,
2013-04-10 11:00:00,39.0,39.0,-100.00,SW,220,0.0,0.0,100,0.16,,,0.34,,2013-04-10 16:00:00,
2013-04-10 11:05:00,37.8,37.0,-100.00,SW,220,0.0,0.0,100,0.28,,,0.46,,2013-04-10 16:05:00,
2013-04-10 11:10:00,37.9,37.0,-100.00,SW,226,0.0,0.0,100,0.31,,,0.49,,2013-04-10 16:10:00,
2013-04-10 11:15:00,37.8,37.0,-100.00,SW,220,0.0,0.0,100,0.34,,,0.52,,2013-04-10 16:15:00,
2013-04-10 11:20:00,37.8,37.0,-100.00,SW,220,0.0,0.0,100,0.37,,,0.55,,2013-04-10 16:20:00,
2013-04-10 11:25:00,37.8,37.0,-100.00,SW,226,0.0,0.0,100,0.37,,,0.55,,2013-04-10 16:25:00,
2013-04-10 11:30:00,39.2,39.0,-100.00,SW,220,0.0,0.0,100,0.37,,,0.55,,2013-04-10 16:30:00,
2013-04-10 11:40:00,39.1,39.0,-100.00,SW,220,0.0,0.0,100,0.34,,,0.55,,2013-04-10 16:40:00,
2013-04-10 11:45:00,39.1,39.0,-100.00,SW,220,0.0,0.0,100,0.34,,,0.58,,2013-04-10 16:45:00,
2013-04-10 11:55:00,39.3,39.0,-100.00,SW,220,0.0,0.0,100,0.28,,,0.58,,2013-04-10 16:55:00,
2013-04-10 12:05:00,39.5,39.0,-100.00,SW,220,0.0,0.0,100,0.12,,,0.58,,2013-04-10 17:05:00,
2013-04-10 12:10:00,39.5,39.0,-100.00,SW,229,0.0,0.0,100,0.12,,,0.61,,2013-04-10 17:10:00,
2013-04-10 12:15:00,39.6,39.0,-100.00,SW,220,0.0,0.0,100,0.09,,,0.61,,2013-04-10 17:15:00,
2013-04-10 12:20:00,39.6,39.0,-100.00,SW,223,0.0,0.0,100,0.06,,,0.61,,2013-04-10 17:20:00,
2013-04-10 12:25:00,39.6,39.0,-100.00,SW,223,0.0,0.0,100,0.06,,,0.61,,2013-04-10 17:25:00,
2013-04-10 12:30:00,39.7,39.0,-100.00,SW,226,0.0,0.0,100,0.06,,,0.61,,2013-04-10 17:30:00,
2013-04-10 12:35:00,39.5,39.0,-100.00,SW,220,0.0,0.0,100,0.06,,,0.61,,2013-04-10 17:35:00,
2013-04-10 12:40:00,39.5,39.0,-100.00,SW,234,0.0,0.0,100,0.06,,,0.61,,2013-04-10 17:40:00,
2013-04-10 12:50:00,39.6,39.0,-100.00,SW,220,0.0,0.0,100,0.03,,,0.61,,2013-04-10 17:50:00,
2013-04-10 12:55:00,39.5,39.0,-100.00,SW,220,0.0,0.0,100,0.03,,,0.61,,2013-04-10 17:55:00,
2013-04-10 13:00:00,39.6,39.0,-100.00,SW,220,0.0,0.0,100,0.03,,,0.61,,2013-04-10 18:00:00,
2013-04-10 13:05:00,39.8,39.0,-100.00,SW,223,0.0,0.0,100,0.03,,,0.61,,2013-04-10 18:05:00,
2013-04-10 13:10:00,39.8,39.0,-100.00,SW,220,0.0,0.0,100,0.00,,,0.61,,2013-04-10 18:10:00,
2013-04-10 13:15:00,39.9,39.0,-100.00,SW,220,0.0,0.0,100,0.00,,,0.61,,2013-04-10 18:15:00,
2013-04-10 13:20:00,39.8,39.0,-100.00,SW,226,0.0,0.0,100,0.00,,,0.61,,2013-04-10 18:20:00,
2013-04-10 13:25:00,40.1,40.0,-100.00,WSW,243,0.0,0.0,100,0.00,,,0.61,,2013-04-10 18:25:00,
2013-04-10 13:30:00,40.4,40.0,-100.00,SW,226,0.0,0.0,100,0.00,,,0.61,,2013-04-10 18:30:00,
2013-04-10 13:35:00,40.6,40.0,-100.00,WSW,243,0.0,0.0,100,0.00,,,0.61,,2013-04-10 18:35:00,
2013-04-10 13:40:00,40.8,40.0,-100.00,SW,220,0.0,0.0,100,0.00,,,0.61,,2013-04-10 18:40:00,
2013-04-10 13:45:00,42.5,42.0,-100.00,WSW,243,0.0,0.0,100,0.00,,,0.61,,2013-04-10 18:45:00,
2013-04-10 13:50:00,44.0,44.0,-100.00,WSW,237,0.0,0.0,100,0.00,,,0.61,,2013-04-10 18:50:00,
2013-04-10 13:55:00,44.1,44.0,-100.00,SW,220,0.0,0.0,100,0.00,,,0.61,,2013-04-10 18:55:00,
2013-04-10 14:00:00,44.0,44.0,-100.00,WSW,240,0.0,0.0,100,0.00,,,0.61,,2013-04-10 19:00:00,
2013-04-10 14:05:00,44.5,44.0,-100.00,SW,232,0.0,0.0,99,0.00,,,0.61,,2013-04-10 19:05:00,
2013-04-10 14:10:00,44.1,43.0,-100.00,SW,220,0.0,0.0,99,0.00,,,0.61,,2013-04-10 19:10:00,
2013-04-10 14:15:00,44.2,44.0,-100.00,WSW,243,0.0,0.0,100,0.00,,,0.61,,2013-04-10 19:15:00,
2013-04-10 14:25:00,46.0,44.0,-100.00,West,265,0.0,0.0,95,0.00,,,0.61,,2013-04-10 19:25:00,
2013-04-10 14:30:00,44.8,43.0,-100.00,SW,226,0.0,0.0,96,0.00,,,0.61,,2013-04-10 19:30:00,
2013-04-10 14:35:00,46.0,44.0,-100.00,WSW,245,0.0,0.0,95,0.00,,,0.61,,2013-04-10 19:35:00,
2013-04-10 14:45:00,46.4,44.0,-100.00,West,265,0.0,0.0,92,0.00,,,0.61,,2013-04-10 19:45:00,
2013-04-10 14:50:00,46.6,44.0,-100.00,West,259,0.0,0.0,92,0.00,,,0.61,,2013-04-10 19:50:00,
2013-04-10 14:55:00,46.6,44.0,-100.00,SW,220,0.0,0.0,92,0.00,,,0.61,,2013-04-10 19:55:00,
2013-04-10 15:00:00,46.8,44.0,-100.00,West,265,0.0,0.0,92,0.00,,,0.61,,2013-04-10 20:00:00,
2013-04-10 15:05:00,46.6,44.0,-100.00,SW,226,0.0,0.0,92,0.00,,,0.61,,2013-04-10 20:05:00,
2013-04-10 15:10:00,46.3,44.0,-100.00,West,265,0.0,0.0,93,0.00,,,0.61,,2013-04-10 20:10:00,
2013-04-10 15:15:00,46.6,44.0,-100.00,SW,226,0.0,0.0,91,0.00,,,0.61,,2013-04-10 20:15:00,
2013-04-10 15:20:00,46.1,43.0,-100.00,SW,223,0.0,0.0,91,0.00,,,0.61,,2013-04-10 20:20:00,
2013-04-10 15:25:00,44.8,42.0,-100.00,WSW,240,0.0,0.0,91,0.00,,,0.61,,2013-04-10 20:25:00,
2013-04-10 15:35:00,46.1,43.0,-100.00,SW,231,0.0,0.0,90,0.00,,,0.61,,2013-04-10 20:35:00,
2013-04-10 15:45:00,46.5,43.0,-100.00,SW,223,0.0,0.0,88,0.00,,,0.61,,2013-04-10 20:45:00,
2013-04-10 15:50:00,46.2,42.0,-100.00,SW,220,0.0,0.0,88,0.00,,,0.61,,2013-04-10 20:50:00,
2013-04-10 15:55:00,46.4,43.0,-100.00,WSW,237,0.0,0.0,88,0.00,,,0.61,,2013-04-10 20:55:00,
2013-04-10 16:00:00,46.2,43.0,-100.00,SW,223,0.0,0.0,89,0.00,,,0.61,,2013-04-10 21:00:00,
2013-04-10 16:10:00,46.0,42.0,-100.00,SW,220,0.0,0.0,87,0.00,,,0.61,,2013-04-10 21:10:00,
2013-04-10 16:15:00,44.9,41.0,-100.00,SW,226,0.0,0.0,87,0.00,,,0.61,,2013-04-10 21:15:00,
2013-04-10 16:20:00,44.9,41.0,-100.00,SW,220,0.0,0.0,88,0.00,,,0.61,,2013-04-10 21:20:00,
2013-04-10 16:25:00,46.1,42.0,-100.00,SW,220,0.0,0.0,87,0.00,,,0.61,,2013-04-10 21:25:00,
2013-04-10 16:30:00,44.9,41.0,-100.00,WSW,243,0.0,0.0,87,0.00,,,0.61,,2013-04-10 21:30:00,
2013-04-10 16:35:00,46.3,42.0,-100.00,WSW,257,0.0,0.0,85,0.00,,,0.61,,2013-04-10 21:35:00,
2013-04-10 16:40:00,46.6,41.0,-100.00,West,265,0.0,0.0,82,0.00,,,0.61,,2013-04-10 21:40:00,
2013-04-10 16:45:00,46.5,41.0,-100.00,WSW,257,0.0,0.0,82,0.00,,,0.61,,2013-04-10 21:45:00,
2013-04-10 16:50:00,46.6,41.0,-100.00,SW,229,0.0,0.0,82,0.00,,,0.61,,2013-04-10 21:50:00,
2013-04-10 16:55:00,46.5,41.0,-100.00,WSW,248,0.0,0.0,82,0.00,,,0.61,,2013-04-10 21:55:00,
2013-04-10 17:05:00,48.4,41.0,-100.00,WSW,237,0.0,0.0,78,0.00,,,0.61,,2013-04-10 22:05:00,
2013-04-10 17:10:00,48.9,41.0,-100.00,SW,223,0.0,0.0,76,0.00,,,0.61,,2013-04-10 22:10:00,
2013-04-10 17:15:00,48.6,41.0,-100.00,SW,226,0.0,0.0,77,0.00,,,0.61,,2013-04-10 22:15:00,
2013-04-10 17:20:00,48.1,41.0,-100.00,WSW,257,0.0,0.0,79,0.00,,,0.61,,2013-04-10 22:20:00,
2013-04-10 17:25:00,48.2,41.0,-100.00,West,263,0.0,0.0,79,0.00,,,0.61,,2013-04-10 22:25:00,
2013-04-10 17:30:00,48.3,42.0,-100.00,West,265,0.0,0.0,79,0.00,,,0.61,,2013-04-10 22:30:00,
2013-04-10 17:35:00,48.8,42.0,-100.00,SW,226,0.0,0.0,79,0.00,,,0.61,,2013-04-10 22:35:00,
2013-04-10 17:45:00,49.0,42.0,-100.00,WSW,243,0.0,0.0,78,0.00,,,0.61,,2013-04-10 22:45:00,
2013-04-10 17:50:00,48.9,42.0,-100.00,SW,231,0.0,0.0,77,0.00,,,0.61,,2013-04-10 22:50:00,
2013-04-10 17:55:00,49.1,41.0,-100.00,WSW,245,0.0,0.0,75,0.00,,,0.61,,2013-04-10 22:55:00,
2013-04-10 18:00:00,49.0,41.0,-100.00,SW,217,0.0,0.0,75,0.00,,,0.61,,2013-04-10 23:00:00,
2013-04-10 18:05:00,49.1,41.0,-100.00,West,265,0.0,0.0,75,0.00,,,0.61,,2013-04-10 23:05:00,
2013-04-10 18:10:00,49.0,41.0,-100.00,SW,220,0.0,0.0,74,0.00,,,0.61,,2013-04-10 23:10:00,
2013-04-10 18:15:00,48.8,40.0,-100.00,SW,232,0.0,0.0,74,0.00,,,0.61,,2013-04-10 23:15:00,
2013-04-10 18:20:00,48.1,41.0,-100.00,WSW,237,0.0,0.0,78,0.00,,,0.61,,2013-04-10 23:20:00,
2013-04-10 18:25:00,46.8,40.0,-100.00,West,259,0.0,0.0,79,0.00,,,0.61,,2013-04-10 23:25:00,
2013-04-10 18:30:00,48.1,42.0,-100.00,West,265,0.0,0.0,80,0.00,,,0.61,,2013-04-10 23:30:00,
2013-04-10 18:35:00,48.4,41.0,-100.00,West,265,0.0,0.0,78,0.00,,,0.61,,2013-04-10 23:35:00,
2013-04-10 18:40:00,48.0,42.0,-100.00,West,265,0.0,0.0,80,0.00,,,0.61,,2013-04-10 23:40:00,
2013-04-10 18:45:00,46.6,41.0,-100.00,SW,226,0.0,0.0,82,0.00,,,0.61,,2013-04-10 23:45:00,
2013-04-10 18:50:00,46.6,41.0,-100.00,West,265,0.0,0.0,83,0.00,,,0.61,,2013-04-10 23:50:00,
2013-04-10 18:55:00,48.0,42.0,-100.00,West,265,0.0,0.0,82,0.00,,,0.61,,2013-04-10 23:55:00,
2013-04-10 19:00:00,48.0,42.0,-100.00,WSW,243,0.0,0.0,81,0.00,,,0.61,,2013-04-11 00:00:00,
2013-04-10 19:05:00,46.9,41.0,-100.00,West,265,0.0,0.0,82,0.00,,,0.61,,2013-04-11 00:05:00,
2013-04-10 19:10:00,46.6,41.0,-100.00,West,265,0.0,0.0,83,0.00,,,0.61,,2013-04-11 00:10:00,
2013-04-10 19:15:00,46.5,41.0,-100.00,West,265,0.0,0.0,83,0.00,,,0.61,,2013-04-11 00:15:00,
2013-04-10 19:20:00,46.5,41.0,-100.00,West,265,0.0,0.0,84,0.00,,,0.61,,2013-04-11 00:20:00,
2013-04-10 19:25:00,46.2,41.0,-100.00,West,265,0.0,0.0,85,0.00,,,0.61,,2013-04-11 00:25:00,
2013-04-10 19:30:00,46.0,42.0,-100.00,West,265,0.0,0.0,86,0.00,,,0.61,,2013-04-11 00:30:00,
2013-04-10 19:40:00,44.6,40.0,-100.00,West,265,0.0,0.0,87,0.00,,,0.61,,2013-04-11 00:40:00,
2013-04-10 19:50:00,44.2,41.0,-100.00,West,265,0.0,0.0,91,0.00,,,0.61,,2013-04-11 00:50:00,
2013-04-10 20:00:00,42.9,41.0,-100.00,West,265,0.0,0.0,93,0.00,,,0.61,,2013-04-11 01:00:00,
2013-04-10 20:10:00,42.8,41.0,-100.00,West,265,0.0,0.0,94,0.00,,,0.61,,2013-04-11 01:10:00,
2013-04-10 20:15:00,42.7,41.0,-100.00,West,265,0.0,0.0,95,0.00,,,0.61,,2013-04-11 01:15:00,
2013-04-10 20:20:00,42.6,41.0,-100.00,West,265,0.0,0.0,95,0.00,,,0.61,,2013-04-11 01:20:00,
2013-04-10 20:25:00,42.5,41.0,-100.00,West,265,0.0,0.0,96,0.00,,,0.61,,2013-04-11 01:25:00,
2013-04-10 20:30:00,42.3,41.0,-100.00,West,265,0.0,0.0,97,0.00,,,0.61,,2013-04-11 01:30:00,
2013-04-10 20:35:00,42.1,41.0,-100.00,West,265,0.0,0.0,97,0.00,,,0.61,,2013-04-11 01:35:00,
2013-04-10 20:40:00,40.9,40.0,-100.00,West,265,0.0,0.0,99,0.00,,,0.61,,2013-04-11 01:40:00,
2013-04-10 20:45:00,40.9,40.0,-100.00,West,265,0.0,0.0,99,0.00,,,0.61,,2013-04-11 01:45:00,
2013-04-10 20:55:00,40.6,40.0,-100.00,West,265,0.0,0.0,100,0.00,,,0.61,,2013-04-11 01:55:00,
2013-04-10 21:00:00,40.5,40.0,-100.00,West,265,0.0,0.0,100,0.00,,,0.61,,2013-04-11 02:00:00,
2013-04-10 21:05:00,40.4,40.0,-100.00,West,265,0.0,0.0,100,0.00,,,0.61,,2013-04-11 02:05:00,
2013-04-10 21:10:00,40.3,40.0,-100.00,West,265,0.0,0.0,100,0.00,,,0.61,,2013-04-11 02:10:00,
2013-04-10 21:15:00,40.1,40.0,-100.00,West,265,0.0,0.0,100,0.00,,,0.61,,2013-04-11 02:15:00,
2013-04-10 21:20:00,40.1,40.0,-100.00,West,265,0.0,0.0,100,0.00,,,0.61,,2013-04-11 02:20:00,
2013-04-10 21:25:00,40.3,40.0,-100.00,West,265,0.0,0.0,100,0.00,,,0.61,,2013-04-11 02:25:00,
2013-04-10 21:30:00,40.4,40.0,-100.00,West,265,0.0,0.0,100,0.00,,,0.61,,2013-04-11 02:30:00,
2013-04-10 21:35:00,40.5,40.0,-100.00,West,265,0.0,0.0,100,0.00,,,0.61,,2013-04-11 02:35:00,
2013-04-10 21:40:00,40.5,40.0,-100.00,West,265,0.0,0.0,100,0.00,,,0.61,,2013-04-11 02:40:00,
2013-04-10 21:45:00,40.5,40.0,-100.00,West,265,0.0,0.0,100,0.00,,,0.61,,2013-04-11 02:45:00,
2013-04-10 21:50:00,40.5,40.0,-100.00,West,265,0.0,0.0,100,0.00,,,0.61,,2013-04-11 02:50:00,
2013-04-10 21:55:00,40.6,40.0,-100.00,WSW,243,0.0,0.0,100,0.00,,,0.61,,2013-04-11 02:55:00,
2013-04-10 22:00:00,40.6,40.0,-100.00,WSW,243,0.0,0.0,100,0.00,,,0.61,,2013-04-11 03:00:00,
2013-04-10 22:05:00,40.6,40.0,-100.00,West,265,0.0,0.0,100,0.00,,,0.61,,2013-04-11 03:05:00,
2013-04-10 22:10:00,40.6,40.0,-100.00,West,262,0.0,0.0,100,0.00,,,0.61,,2013-04-11 03:10:00,
2013-04-10 22:15:00,40.6,40.0,-100.00,West,265,0.0,0.0,100,0.00,,,0.61,,2013-04-11 03:15:00,
2013-04-10 22:20:00,40.6,40.0,-100.00,SW,229,0.0,0.0,100,0.00,,,0.61,,2013-04-11 03:20:00,
2013-04-10 22:25:00,40.7,40.0,-100.00,SW,220,0.0,0.0,100,0.00,,,0.61,,2013-04-11 03:25:00,
2013-04-10 22:30:00,40.6,40.0,-100.00,SW,220,0.0,0.0,100,0.00,,,0.61,,2013-04-11 03:30:00,
2013-04-10 22:35:00,40.6,40.0,-100.00,SW,220,0.0,0.0,100,0.00,,,0.61,,2013-04-11 03:35:00,
2013-04-10 22:40:00,40.6,40.0,-100.00,SW,220,0.0,0.0,100,0.00,,,0.61,,2013-04-11 03:40:00,
2013-04-10 22:45:00,40.6,40.0,-100.00,SW,220,0.0,0.0,100,0.00,,,0.61,,2013-04-11 03:45:00,
2013-04-10 22:50:00,40.6,40.0,-100.00,WSW,243,0.0,0.0,100,0.00,,,0.61,,2013-04-11 03:50:00,
2013-04-10 22:55:00,40.6,40.0,-100.00,WSW,243,0.0,0.0,100,0.00,,,0.61,,2013-04-11 03:55:00,
2013-04-10 23:00:00,40.6,40.0,-100.00,SW,220,0.0,0.0,100,0.00,,,0.61,,2013-04-11 04:00:00,
2013-04-10 23:05:00,40.6,40.0,-100.00,SW,220,0.0,0.0,100,0.00,,,0.61,,2013-04-11 04:05:00,
2013-04-10 23:10:00,40.6,40.0,-100.00,SW,220,0.0,0.0,100,0.00,,,0.61,,2013-04-11 04:10:00,
2013-04-10 23:15:00,40.6,40.0,-100.00,SW,220,0.0,0.0,100,0.00,,,0.61,,2013-04-11 04:15:00,
2013-04-10 23:20:00,40.6,40.0,-100.00,SW,220,0.0,0.0,100,0.00,,,0.61,,2013-04-11 04:20:00,
2013-04-10 23:25:00,40.6,40.0,-100.00,SW,220,0.0,0.0,100,0.00,,,0.61,,2013-04-11 04:25:00,
2013-04-10 23:30:00,40.5,40.0,-100.00,SW,220,0.0,0.0,100,0.00,,,0.61,,2013-04-11 04:30:00,
2013-04-10 23:35:00,40.5,40.0,-100.00,SW,220,0.0,0.0,100,0.00,,,0.61,,2013-04-11 04:35:00,
2013-04-10 23:40:00,40.5,40.0,-100.00,SW,220,0.0,0.0,100,0.00,,,0.61,,2013-04-11 04:40:00,
2013-04-10 23:45:00,40.5,40.0,-100.00,SW,220,0.0,0.0,100,0.00,,,0.61,,2013-04-11 04:45:00,
2013-04-10 23:55:00,40.4,40.0,-100.00,SW,232,0.0,0.0,100,0.00,,,0.61,,2013-04-11 04:55:00,